When you browse on this site, cookies collect data to enhance your experience and personalize the content and advertising you see.
Visit our Privacy Policy to learn more. By continuing to use the site, you agree to this use of cookies and data.
  • In Romania
  • List of Countries
  • For 7 days
  • Water Temperature
  • Satellite Maps
  • Weather Map
  • Weather Widgets
  • user-avatar
    Login

    Hourly Weather Passo Fundo

    Today, 25 April, Thursday

    Time Temperature Precipitation Wind Pressure Humidity
    00:00 +20°C° 0 mm 3 mps 709 mmHg 90%
    01:00 +20°C° 0 mm 3 mps 709 mmHg 91%
    02:00 +20°C° 0 mm 3 mps 709 mmHg 92%
    03:00 +20°C° 0 mm 2 mps 709 mmHg 93%
    04:00 +20°C° 0 mm 3 mps 709 mmHg 91%
    05:00 +20°C° 0 mm 3 mps 709 mmHg 89%
    06:00 +20°C° 0 mm 4 mps 708 mmHg 87%
    07:00 +21°C° 0 mm 3 mps 709 mmHg 86%
    08:00 +21°C° 0 mm 3 mps 709 mmHg 85%
    09:00 +23°C° 0 mm 2 mps 710 mmHg 84%
    10:00 +24°C° 0 mm 3 mps 710 mmHg 80%
    11:00 +26°C° 0 mm 3 mps 710 mmHg 75%
    12:00 +27°C° 0 mm 3 mps 710 mmHg 70%
    13:00 +27°C° 1.1 mm 2 mps 709 mmHg 71%
    14:00 +27°C° 1.1 mm 1 mps 709 mmHg 71%
    15:00 +28°C° 1.1 mm 1 mps 708 mmHg 71%
    16:00 +26°C° 0.7 mm 1 mps 708 mmHg 76%
    17:00 +25°C° 0.7 mm 1 mps 708 mmHg 82%
    18:00 +24°C° 0.7 mm 2 mps 708 mmHg 87%
    19:00 +23°C° 0.1 mm 2 mps 708 mmHg 89%
    20:00 +23°C° 0.1 mm 2 mps 708 mmHg 91%
    21:00 +21°C° 0.1 mm 2 mps 708 mmHg 93%
    22:00 +21°C° 0 mm 2 mps 709 mmHg 93%
    23:00 +20°C° 0 mm 2 mps 709 mmHg 94%

    Tomorrow, 26 April, Friday

    Time Temperature Precipitation Wind Pressure Humidity
    00:00 +20°C° 0 mm 2 mps 709 mmHg 94%
    01:00 +20°C° 0.1 mm 3 mps 709 mmHg 94%
    02:00 +20°C° 0.1 mm 3 mps 708 mmHg 95%
    03:00 +20°C° 0.1 mm 3 mps 708 mmHg 95%
    04:00 +20°C° 0.2 mm 3 mps 708 mmHg 95%
    05:00 +20°C° 0.2 mm 3 mps 708 mmHg 96%
    06:00 +20°C° 0.2 mm 3 mps 708 mmHg 96%
    07:00 +21°C° 0 mm 3 mps 708 mmHg 94%
    08:00 +21°C° 0 mm 3 mps 709 mmHg 92%
    09:00 +22°C° 0 mm 3 mps 709 mmHg 90%
    10:00 +24°C° 0.9 mm 3 mps 709 mmHg 87%
    11:00 +25°C° 0.9 mm 3 mps 709 mmHg 84%
    12:00 +25°C° 0.9 mm 2 mps 709 mmHg 80%
    13:00 +25°C° 0.4 mm 2 mps 708 mmHg 82%
    14:00 +25°C° 0.4 mm 2 mps 707 mmHg 84%
    15:00 +24°C° 0.4 mm 2 mps 707 mmHg 86%
    16:00 +24°C° 0.2 mm 1 mps 706 mmHg 87%
    17:00 +23°C° 0.2 mm 1 mps 706 mmHg 89%
    18:00 +20°C° 0.2 mm 0 mps 706 mmHg 90%
    19:00 +22°C° 0.1 mm 1 mps 707 mmHg 90%
    20:00 +22°C° 0.1 mm 1 mps 707 mmHg 90%
    21:00 +22°C° 0.1 mm 1 mps 707 mmHg 90%
    22:00 +21°C° 0.2 mm 1 mps 707 mmHg 91%
    23:00 +20°C° 0.2 mm 2 mps 707 mmHg 91%

    Day after tomorrow, 27 April, Saturday

    Time Temperature Precipitation Wind Pressure Humidity
    00:00 +20°C° 0.2 mm 2 mps 707 mmHg 92%
    01:00 +20°C° 0 mm 2 mps 706 mmHg 92%
    02:00 +20°C° 0 mm 2 mps 706 mmHg 93%
    03:00 +20°C° 0 mm 2 mps 705 mmHg 93%
    04:00 +19°C° 0.1 mm 2 mps 705 mmHg 94%
    05:00 +19°C° 0.1 mm 2 mps 705 mmHg 95%
    06:00 +19°C° 0.1 mm 3 mps 705 mmHg 95%
    07:00 +20°C° 0.6 mm 3 mps 705 mmHg 95%
    08:00 +20°C° 0.6 mm 3 mps 705 mmHg 94%
    09:00 +21°C° 0.6 mm 3 mps 706 mmHg 94%
    10:00 +21°C° 1.8 mm 3 mps 706 mmHg 93%
    11:00 +21°C° 1.8 mm 4 mps 705 mmHg 91%
    12:00 +22°C° 1.8 mm 5 mps 705 mmHg 90%
    13:00 +21°C° 2.6 mm 4 mps 705 mmHg 91%
    14:00 +21°C° 2.6 mm 3 mps 704 mmHg 93%
    15:00 +20°C° 2.6 mm 3 mps 704 mmHg 94%
    16:00 +20°C° 0.9 mm 2 mps 703 mmHg 95%
    17:00 +20°C° 0.9 mm 2 mps 703 mmHg 96%
    18:00 +19°C° 0.9 mm 2 mps 703 mmHg 96%
    19:00 +20°C° 0.2 mm 1 mps 703 mmHg 96%
    20:00 +18°C° 0.2 mm 0 mps 703 mmHg 96%
    21:00 +18°C° 0.2 mm 0 mps 703 mmHg 95%
    22:00 +18°C° 0.3 mm 0 mps 703 mmHg 96%
    23:00 +20°C° 0.3 mm 1 mps 703 mmHg 96%

    28 April, Sunday

    Time Temperature Precipitation Wind Pressure Humidity
    00:00 +20°C° 0.3 mm 1 mps 703 mmHg 96%
    01:00 +20°C° 0.2 mm 1 mps 703 mmHg 97%
    02:00 +20°C° 0.2 mm 1 mps 703 mmHg 97%
    03:00 +20°C° 0.2 mm 1 mps 702 mmHg 97%
    04:00 +20°C° 0 mm 1 mps 702 mmHg 97%
    05:00 +19°C° 0 mm 1 mps 702 mmHg 97%
    06:00 +19°C° 0 mm 1 mps 702 mmHg 97%
    07:00 +20°C° 0 mm 1 mps 703 mmHg 95%
    08:00 +20°C° 0 mm 1 mps 703 mmHg 94%
    09:00 +21°C° 0 mm 1 mps 704 mmHg 92%
    10:00 +22°C° 0.3 mm 1 mps 704 mmHg 89%
    11:00 +23°C° 0.3 mm 1 mps 704 mmHg 86%
    12:00 +23°C° 0.3 mm 2 mps 704 mmHg 83%
    13:00 +24°C° 2.1 mm 3 mps 704 mmHg 84%
    14:00 +24°C° 2.1 mm 3 mps 703 mmHg 84%
    15:00 +23°C° 2.1 mm 4 mps 703 mmHg 85%
    16:00 +22°C° 0.1 mm 3 mps 703 mmHg 88%
    17:00 +21°C° 0.1 mm 3 mps 703 mmHg 91%
    18:00 +20°C° 0.1 mm 2 mps 703 mmHg 94%
    19:00 +19°C° 0 mm 2 mps 703 mmHg 94%
    20:00 +19°C° 0 mm 2 mps 704 mmHg 94%
    21:00 +18°C° 0 mm 3 mps 704 mmHg 94%
    22:00 +17°C° 0 mm 2 mps 704 mmHg 96%
    23:00 +16°C° 0 mm 2 mps 704 mmHg 97%

    29 April, Monday

    Time Temperature Precipitation Wind Pressure Humidity
    00:00 +15°C° 0 mm 2 mps 704 mmHg 98%
    01:00 +15°C° 0 mm 2 mps 704 mmHg 98%
    02:00 +14°C° 0 mm 2 mps 703 mmHg 98%
    03:00 +14°C° 0 mm 2 mps 703 mmHg 98%
    04:00 +14°C° 0 mm 2 mps 704 mmHg 97%
    05:00 +14°C° 0 mm 2 mps 704 mmHg 96%
    06:00 +14°C° 0 mm 2 mps 704 mmHg 96%
    07:00 +15°C° 0 mm 2 mps 704 mmHg 93%
    08:00 +15°C° 0 mm 2 mps 705 mmHg 91%
    09:00 +16°C° 0 mm 2 mps 706 mmHg 88%
    10:00 +18°C° 0 mm 2 mps 706 mmHg 79%
    11:00 +20°C° 0 mm 2 mps 706 mmHg 70%
    12:00 +23°C° 0 mm 2 mps 706 mmHg 61%
    13:00 +23°C° 0 mm 2 mps 706 mmHg 59%
    14:00 +24°C° 0 mm 2 mps 705 mmHg 57%
    15:00 +24°C° 0 mm 2 mps 705 mmHg 54%
    16:00 +23°C° 0 mm 2 mps 705 mmHg 60%
    17:00 +20°C° 0 mm 2 mps 705 mmHg 66%
    18:00 +18°C° 0 mm 2 mps 705 mmHg 72%
    19:00 +17°C° 0 mm 2 mps 705 mmHg 76%
    20:00 +16°C° 0 mm 3 mps 706 mmHg 80%
    21:00 +14°C° 0 mm 3 mps 706 mmHg 85%
    22:00 +14°C° 0 mm 3 mps 706 mmHg 86%
    23:00 +13°C° 0 mm 3 mps 706 mmHg 88%

    30 April, Tuesday

    Time Temperature Precipitation Wind Pressure Humidity
    00:00 +13°C° 0 mm 3 mps 706 mmHg 89%
    01:00 +12°C° 0 mm 3 mps 706 mmHg 90%
    02:00 +12°C° 0 mm 3 mps 706 mmHg 91%
    03:00 +12°C° 0 mm 3 mps 706 mmHg 92%
    04:00 +12°C° 0 mm 3 mps 706 mmHg 93%
    05:00 +12°C° 0 mm 3 mps 706 mmHg 95%
    06:00 +13°C° 0 mm 3 mps 706 mmHg 96%
    07:00 +14°C° 0 mm 3 mps 707 mmHg 92%
    08:00 +16°C° 0 mm 3 mps 707 mmHg 89%
    09:00 +18°C° 0 mm 3 mps 708 mmHg 85%
    10:00 +20°C° 0 mm 3 mps 708 mmHg 80%
    11:00 +23°C° 0 mm 2 mps 708 mmHg 74%
    12:00 +24°C° 0 mm 2 mps 708 mmHg 68%
    13:00 +25°C° 0 mm 2 mps 707 mmHg 65%
    14:00 +25°C° 0 mm 1 mps 707 mmHg 63%
    15:00 +26°C° 0 mm 1 mps 706 mmHg 60%
    16:00 +24°C° 0 mm 1 mps 706 mmHg 66%
    17:00 +23°C° 0 mm 1 mps 705 mmHg 71%
    18:00 +20°C° 0 mm 2 mps 705 mmHg 76%
    19:00 +19°C° 0 mm 2 mps 705 mmHg 78%
    20:00 +19°C° 0 mm 2 mps 705 mmHg 79%
    21:00 +18°C° 0 mm 2 mps 706 mmHg 81%
    22:00 +18°C° 0 mm 2 mps 706 mmHg 81%
    23:00 +17°C° 0 mm 3 mps 706 mmHg 81%
    Show more